Tracking 29924 objects as of 4-Dec-2024
HD Live streaming from Space Station
objects crossing your sky now

STARLINK-5488

Track STARLINK-5488 now!
10-day predictions
STARLINK-5488 is classified as:


NORAD ID: 57250
Int'l Code: 2023-094AJ
Perigee: 565.3 km
Apogee: 567.1 km
Inclination: 43.0 °
Period: 95.8 minutes
Semi major axis: 6937 km
RCS: Unknown
Launch date: July 7, 2023
Source: United States (US)
Launch site: AIR FORCE WESTERN TEST RANGE (AFWTR)
Your satellite tracking list
Your tracking list is empty




NASA's NSSDC Master Catalog

Two Line Element Set (TLE):
1 57250U 23094AJ  24338.76567118  .00000658  00000-0  63795-4 0  9991
2 57250  43.0057   1.9754 0001275 258.5581 101.5118 15.02533386 77934
Source of the keplerian elements: AFSPC